OE7AOT Weather Reports


Display with metric or nautical units.
time (UTC)temp
F
wind
direction
speed
MPH
gust
MPH
rain 1hr
in
rain 24hr
in
rain mn
in
humidity
%
barometer
mb
20260506211717 53 297 5.0 0.0 0.00 1.11 0.00 68 907.5
20260506204717 54 285 6.0 0.0 0.00 1.11 0.00 67 907.1
20260506201717 54 288 6.0 0.0 0.00 1.11 0.00 69 906.9
20260506194717 56 244 6.0 0.0 0.00 1.11 0.00 66 906.5
20260506191717 57 321 9.0 0.0 0.00 1.11 0.00 62 906.1
20260506184717 59 286 8.0 0.0 0.00 1.11 0.00 56 905.3
20260506181717 60 316 8.0 0.0 0.00 1.11 0.00 53 904.7
20260506174717 63 280 8.0 0.0 0.00 1.11 0.00 48 903.8
20260506171717 64 280 10.0 0.0 0.00 1.11 0.00 42 903.0
20260506164717 66 297 19.0 0.0 0.00 1.11 0.00 37 902.5
20260506161717 70 283 14.0 0.0 0.00 1.11 0.00 33 902.2
20260506154717 73 87 11.0 0.0 0.00 1.11 0.00 28 902.0
20260506151717 74 84 11.0 0.0 0.00 1.11 0.00 26 902.0
20260506144717 79 80 13.0 0.0 0.00 1.11 0.00 23 901.8
20260506141717 81 155 14.0 0.0 0.00 1.11 0.00 21 901.9
20260506134717 78 142 13.0 0.0 0.00 1.11 0.00 26 902.1
20260506131717 76 136 21.0 0.0 0.00 1.11 0.00 27 902.1
20260506124717 76 131 16.0 0.0 0.00 1.11 0.00 28 902.3
20260506121717 74 141 12.0 0.0 0.00 1.11 0.00 30 902.6
20260506114717 75 134 11.0 0.0 0.00 1.11 0.00 29 902.8
20260506111717 74 115 14.0 0.0 0.00 1.11 0.00 30 903.0
20260506104717 72 127 15.0 0.0 0.00 1.11 0.00 32 903.1
20260506101717 70 127 12.0 0.0 0.00 1.11 0.00 34 903.8
20260506094717 67 134 17.0 0.0 0.00 1.11 0.00 37 904.2
20260506091717 67 142 14.0 0.0 0.00 1.11 0.00 37 904.0
20260506084717 64 132 19.0 0.0 0.00 1.11 0.00 41 904.2
20260506081717 61 121 11.0 0.0 0.00 1.11 0.00 49 904.4
20260506071717 57 141 10.0 0.0 0.00 1.11 0.00 57 904.8
20260506061717 50 129 11.0 0.0 0.00 1.11 0.00 71 905.6
20260506044717 47 121 5.0 0.0 0.00 1.11 0.00 76 906.3
20260506041717 46 125 4.0 0.0 0.00 1.11 0.00 76 906.2
20260506034717 46 0 0.0 0.0 0.00 1.11 0.00 76 906.1
20260506031717 47 83 2.0 0.0 0.00 1.11 0.00 75 906.9
20260506024717 47 114 3.0 0.0 0.00 1.11 0.00 74 907.0
20260506021717 46 0 0.0 0.0 0.00 1.11 0.00 74 907.4
20260506014717 47 124 2.0 0.0 0.00 1.11 0.00 72 907.1
20260506011717 48 0 0.0 0.0 0.00 1.11 0.00 70 907.2
20260506004717 48 0 0.0 0.0 0.00 1.11 0.00 68 907.2
20260506001717 49 0 0.0 0.0 0.00 1.11 0.00 67 907.3
20260505234717 49 118 3.0 0.0 0.00 1.11 0.00 65 907.4
20260505231717 50 0 0.0 0.0 0.00 1.11 0.00 63 907.6
20260505224717 51 0 0.0 0.0 0.00 1.11 0.00 61 907.4
20260505221717 51 0 0.0 0.0 0.00 1.11 0.00 59 907.3
20260505214717 52 0 0.0 0.0 0.00 1.11 0.00 58 907.1